Time,TemperatureF,DewpointF,PressureIn,WindDirection,WindDirectionDegrees,WindSpeedMPH,WindSpeedGustMPH,Humidity,HourlyPrecipIn,Conditions,Clouds,dailyrainin,SoftwareType,DateUTC
2013-08-26 00:02:00,66.0,36.1,29.81,East,79,3.5,3.5,33,0.00,OVC,,0.00,WeatherDisplay:10.37,2013-08-26 07:02:00,
2013-08-26 00:07:00,66.2,37.0,29.81,SSE,153,3.5,3.5,34,0.00,OVC,,0.00,WeatherDisplay:10.37,2013-08-26 07:07:00,
2013-08-26 00:12:00,66.6,37.3,29.81,SSE,147,6.0,6.0,34,0.00,OVC,,0.00,WeatherDisplay:10.37,2013-08-26 07:12:00,
2013-08-26 00:17:00,66.1,37.6,29.81,South,178,10.0,10.0,35,0.00,OVC,,0.00,WeatherDisplay:10.37,2013-08-26 07:17:00,
2013-08-26 00:22:00,67.7,37.5,29.81,SSW,198,8.1,8.1,33,0.00,OVC,,0.00,WeatherDisplay:10.37,2013-08-26 07:22:00,
2013-08-26 00:27:00,67.4,36.5,29.81,South,184,10.4,10.4,32,0.00,OVC,,0.00,WeatherDisplay:10.37,2013-08-26 07:27:00,
2013-08-26 00:32:00,66.7,36.7,29.81,South,188,10.4,10.4,33,0.00,OVC,,0.00,WeatherDisplay:10.37,2013-08-26 07:32:00,
2013-08-26 00:37:00,66.9,36.8,29.81,South,170,9.2,9.2,33,0.00,OVC,,0.00,WeatherDisplay:10.37,2013-08-26 07:37:00,
2013-08-26 00:42:00,66.4,37.9,29.82,SSE,159,5.8,5.8,35,0.00,OVC,,0.00,WeatherDisplay:10.37,2013-08-26 07:42:00,
2013-08-26 00:47:00,66.1,37.6,29.82,SSW,202,8.1,8.1,35,0.00,OVC,,0.00,WeatherDisplay:10.37,2013-08-26 07:47:00,
2013-08-26 00:52:00,65.4,36.3,29.82,West,266,5.8,5.8,34,0.00,OVC,,0.00,WeatherDisplay:10.37,2013-08-26 07:52:00,
2013-08-26 00:57:00,65.7,36.5,29.82,West,278,5.8,5.8,34,0.00,OVC,,0.00,WeatherDisplay:10.37,2013-08-26 07:57:00,
2013-08-26 01:02:00,66.3,37.1,29.82,West,270,6.9,6.9,34,0.00,OVC,,0.00,WeatherDisplay:10.37,2013-08-26 08:02:00,
2013-08-26 01:07:00,67.0,36.9,29.82,West,271,8.1,8.1,33,0.00,OVC,,0.00,WeatherDisplay:10.37,2013-08-26 08:07:00,
2013-08-26 01:12:00,67.7,36.8,29.81,West,273,8.1,8.1,32,0.00,OVC,,0.00,WeatherDisplay:10.37,2013-08-26 08:12:00,
2013-08-26 01:17:00,69.0,37.1,29.81,WSW,253,9.2,9.2,31,0.00,OVC,,0.00,WeatherDisplay:10.37,2013-08-26 08:17:00,
2013-08-26 01:22:00,70.0,37.1,29.81,West,259,9.2,9.2,30,0.00,OVC,,0.00,WeatherDisplay:10.37,2013-08-26 08:22:00,
2013-08-26 01:27:00,69.5,36.7,29.81,WSW,250,8.1,8.1,30,0.00,OVC,,0.00,WeatherDisplay:10.37,2013-08-26 08:27:00,
2013-08-26 01:32:00,69.2,36.4,29.81,West,267,8.1,8.1,30,0.00,OVC,,0.00,WeatherDisplay:10.37,2013-08-26 08:32:00,
2013-08-26 01:37:00,68.9,36.2,29.81,WSW,256,8.1,8.1,30,0.00,OVC,,0.00,WeatherDisplay:10.37,2013-08-26 08:37:00,
2013-08-26 01:42:00,68.4,35.7,29.81,WSW,256,6.9,6.9,30,0.00,OVC,,0.00,WeatherDisplay:10.37,2013-08-26 08:42:00,
2013-08-26 01:47:00,67.7,36.0,29.81,WSW,248,6.0,6.0,31,0.00,OVC,,0.00,WeatherDisplay:10.37,2013-08-26 08:47:00,
2013-08-26 01:52:00,67.2,36.3,29.81,WSW,245,8.0,8.0,32,0.00,OVC,,0.00,WeatherDisplay:10.37,2013-08-26 08:52:00,
2013-08-26 01:57:00,66.7,36.7,29.81,WSW,244,8.1,8.1,33,0.00,OVC,,0.00,WeatherDisplay:10.37,2013-08-26 08:57:00,
2013-08-26 02:02:00,66.0,36.8,29.80,WSW,248,8.1,8.1,34,0.00,OVC,,0.00,WeatherDisplay:10.37,2013-08-26 09:02:00,
2013-08-26 02:07:00,65.6,37.2,29.81,WSW,256,6.9,6.9,35,0.00,OVC,,0.00,WeatherDisplay:10.37,2013-08-26 09:07:00,
2013-08-26 02:12:00,65.9,37.5,29.81,WSW,254,6.9,6.9,35,0.00,OVC,,0.00,WeatherDisplay:10.37,2013-08-26 09:12:00,
2013-08-26 02:17:00,66.4,36.4,29.81,WSW,254,4.6,4.6,33,0.00,OVC,,0.00,WeatherDisplay:10.37,2013-08-26 09:17:00,
2013-08-26 02:22:00,66.1,35.4,29.81,WSW,254,1.1,0.0,32,0.00,OVC,,0.00,WeatherDisplay:10.37,2013-08-26 09:22:00,
2013-08-26 02:27:00,65.5,35.6,29.81,WSW,254,0.0,0.0,33,0.00,OVC,,0.00,WeatherDisplay:10.37,2013-08-26 09:27:00,
2013-08-26 02:32:00,65.6,35.7,29.81,WSW,254,1.1,1.1,33,0.00,OVC,,0.00,WeatherDisplay:10.37,2013-08-26 09:32:00,
2013-08-26 02:37:00,66.1,35.4,29.81,WSW,254,4.0,4.0,32,0.00,OVC,,0.00,WeatherDisplay:10.37,2013-08-26 09:37:00,
2013-08-26 02:42:00,66.9,36.1,29.81,WSW,254,3.5,3.5,32,0.00,OVC,,0.00,WeatherDisplay:10.37,2013-08-26 09:42:00,
2013-08-26 02:47:00,67.0,35.3,29.81,WSW,254,3.5,3.5,31,0.00,OVC,,0.00,WeatherDisplay:10.37,2013-08-26 09:47:00,
2013-08-26 02:52:00,67.3,35.6,29.81,West,261,3.5,3.7,31,0.00,OVC,,0.00,WeatherDisplay:10.37,2013-08-26 09:52:00,
2013-08-26 02:57:00,67.1,36.2,29.81,WNW,289,0.0,0.0,32,0.00,OVC,,0.00,WeatherDisplay:10.37,2013-08-26 09:57:00,
2013-08-26 03:02:00,66.6,35.8,29.81,WNW,289,2.3,0.0,32,0.00,OVC,,0.00,WeatherDisplay:10.37,2013-08-26 10:02:00,
2013-08-26 03:07:00,66.1,35.4,29.81,WNW,289,0.0,0.0,32,0.00,OVC,,0.00,WeatherDisplay:10.37,2013-08-26 10:07:00,
2013-08-26 03:12:00,65.5,35.6,29.81,WNW,289,2.0,2.0,33,0.00,OVC,,0.00,WeatherDisplay:10.37,2013-08-26 10:12:00,
2013-08-26 03:17:00,65.2,35.4,29.81,SW,216,3.0,3.0,33,0.00,OVC,,0.00,WeatherDisplay:10.37,2013-08-26 10:17:00,
2013-08-26 03:22:00,65.0,35.9,29.81,SW,217,2.3,2.3,34,0.00,CLR,,0.00,WeatherDisplay:10.37,2013-08-26 10:22:00,
2013-08-26 03:27:00,65.2,36.1,29.81,SW,217,2.3,2.3,34,0.00,OVC,,0.00,WeatherDisplay:10.37,2013-08-26 10:27:00,
2013-08-26 03:32:00,65.8,35.9,29.81,SW,217,2.3,2.3,33,0.00,OVC,,0.00,WeatherDisplay:10.37,2013-08-26 10:32:00,
2013-08-26 03:37:00,65.3,35.4,29.82,West,277,3.5,3.5,33,0.00,OVC,,0.00,WeatherDisplay:10.37,2013-08-26 10:37:00,
2013-08-26 03:42:00,64.5,35.5,29.82,NW,309,4.0,4.0,34,0.00,CLR,,0.00,WeatherDisplay:10.37,2013-08-26 10:42:00,
2013-08-26 03:47:00,63.8,35.6,29.82,NW,309,3.5,3.5,35,0.00,OVC,,0.00,WeatherDisplay:10.37,2013-08-26 10:47:00,
2013-08-26 03:52:00,63.8,35.6,29.82,NW,309,0.0,0.0,35,0.00,OVC,,0.00,WeatherDisplay:10.37,2013-08-26 10:52:00,
2013-08-26 03:57:00,63.9,35.7,29.82,NW,309,0.0,0.0,35,0.00,OVC,,0.00,WeatherDisplay:10.37,2013-08-26 10:57:00,
2013-08-26 04:02:00,63.8,35.6,29.82,NW,309,0.0,0.0,35,0.00,OVC,,0.00,WeatherDisplay:10.37,2013-08-26 11:02:00,
2013-08-26 04:07:00,63.6,35.4,29.82,NW,309,0.0,0.0,35,0.00,OVC,,0.00,WeatherDisplay:10.37,2013-08-26 11:07:00,
2013-08-26 04:12:00,63.3,35.9,29.82,NW,309,2.3,2.3,36,0.00,OVC,,0.00,WeatherDisplay:10.37,2013-08-26 11:12:00,
2013-08-26 04:17:00,63.1,35.7,29.82,NW,309,0.0,0.0,36,0.00,OVC,,0.00,WeatherDisplay:10.37,2013-08-26 11:17:00,
2013-08-26 04:22:00,63.0,36.3,29.82,NW,309,0.0,0.0,37,0.00,OVC,,0.00,WeatherDisplay:10.37,2013-08-26 11:22:00,
2013-08-26 04:27:00,62.9,36.2,29.82,WSW,237,3.5,3.5,37,0.00,OVC,,0.00,WeatherDisplay:10.37,2013-08-26 11:27:00,
2013-08-26 04:32:00,62.2,34.2,29.83,WSW,238,2.3,0.0,35,0.00,CLR,,0.00,WeatherDisplay:10.37,2013-08-26 11:32:00,
2013-08-26 04:37:00,62.1,35.5,29.83,WSW,238,0.0,0.0,37,0.00,OVC,,0.00,WeatherDisplay:10.37,2013-08-26 11:37:00,
2013-08-26 04:42:00,62.0,33.3,29.83,WSW,238,0.0,0.0,34,0.00,OVC,,0.00,WeatherDisplay:10.37,2013-08-26 11:42:00,
2013-08-26 04:47:00,62.1,34.8,29.83,WSW,238,0.0,0.0,36,0.00,OVC,,0.00,WeatherDisplay:10.37,2013-08-26 11:47:00,
2013-08-26 04:52:00,62.1,34.1,29.83,WSW,238,0.0,0.0,35,0.00,OVC,,0.00,WeatherDisplay:10.37,2013-08-26 11:52:00,
2013-08-26 04:57:00,61.7,33.7,29.82,WSW,238,2.3,2.3,35,0.00,OVC,,0.00,WeatherDisplay:10.37,2013-08-26 11:57:00,
2013-08-26 05:02:00,61.9,33.2,29.82,WSW,238,3.5,3.5,34,0.00,OVC,,0.00,WeatherDisplay:10.37,2013-08-26 12:02:00,
2013-08-26 05:07:00,62.0,34.7,29.83,WSW,238,2.3,2.3,36,0.00,OVC,,0.00,WeatherDisplay:10.37,2013-08-26 12:07:00,
2013-08-26 05:12:00,61.0,30.1,29.83,WSW,239,3.5,3.5,31,0.00,OVC,,0.00,WeatherDisplay:10.37,2013-08-26 12:12:00,
2013-08-26 05:17:00,58.7,30.4,29.83,SW,232,3.5,3.5,34,0.00,CLR,,0.00,WeatherDisplay:10.37,2013-08-26 12:17:00,
2013-08-26 05:22:00,58.3,32.1,29.83,SSW,209,4.0,4.0,37,0.00,CLR,,0.00,WeatherDisplay:10.37,2013-08-26 12:22:00,
2013-08-26 05:27:00,58.9,32.7,29.83,SSW,205,3.5,3.5,37,0.00,OVC,,0.00,WeatherDisplay:10.37,2013-08-26 12:27:00,
2013-08-26 05:32:00,59.8,34.8,29.83,South,188,3.5,3.5,39,0.00,OVC,,0.00,WeatherDisplay:10.37,2013-08-26 12:32:00,
2013-08-26 05:37:00,61.3,36.8,29.83,South,188,3.5,3.5,40,0.00,OVC,,0.00,WeatherDisplay:10.37,2013-08-26 12:37:00,
2013-08-26 05:42:00,63.0,38.3,29.83,South,188,3.5,3.5,40,0.00,OVC,,0.00,WeatherDisplay:10.37,2013-08-26 12:42:00,
2013-08-26 05:47:00,63.9,37.8,29.83,South,189,3.5,3.5,38,0.00,OVC,,0.00,WeatherDisplay:10.37,2013-08-26 12:47:00,
2013-08-26 05:52:00,62.9,36.2,29.84,South,190,3.5,3.5,37,0.00,OVC,,0.00,WeatherDisplay:10.37,2013-08-26 12:52:00,
2013-08-26 05:57:00,61.6,34.4,29.84,SW,235,4.0,4.0,36,0.00,OVC,,0.00,WeatherDisplay:10.37,2013-08-26 12:57:00,
2013-08-26 06:02:00,60.9,34.4,29.84,SSW,199,4.6,4.6,37,0.00,OVC,,0.00,WeatherDisplay:10.37,2013-08-26 13:02:00,
2013-08-26 06:07:00,60.5,36.0,29.84,SSW,199,3.5,3.9,40,0.00,OVC,,0.00,WeatherDisplay:10.37,2013-08-26 13:07:00,
2013-08-26 06:12:00,61.4,33.5,29.84,SSW,199,4.0,4.0,35,0.00,OVC,,0.00,WeatherDisplay:10.37,2013-08-26 13:12:00,
2013-08-26 06:17:00,61.3,35.5,29.84,SSW,199,3.5,3.5,38,0.00,OVC,,0.00,WeatherDisplay:10.37,2013-08-26 13:17:00,
2013-08-26 06:22:00,61.0,35.2,29.84,SSW,199,3.5,3.5,38,0.00,OVC,,0.00,WeatherDisplay:10.37,2013-08-26 13:22:00,
2013-08-26 06:27:00,61.3,34.1,29.85,SSW,199,0.0,0.0,36,0.00,OVC,,0.00,WeatherDisplay:10.37,2013-08-26 13:27:00,
2013-08-26 06:32:00,60.9,35.1,29.85,SSW,199,0.0,0.1,38,0.00,OVC,,0.00,WeatherDisplay:10.37,2013-08-26 13:32:00,
2013-08-26 06:37:00,60.8,39.3,29.85,SSW,199,2.3,2.3,45,0.00,OVC,,0.00,WeatherDisplay:10.37,2013-08-26 13:37:00,
2013-08-26 06:42:00,60.8,38.7,29.85,SSW,199,0.0,0.0,44,0.00,OVC,,0.00,WeatherDisplay:10.37,2013-08-26 13:42:00,
2013-08-26 06:47:00,60.8,39.3,29.85,SSW,199,0.0,0.0,45,0.00,OVC,,0.00,WeatherDisplay:10.37,2013-08-26 13:47:00,
2013-08-26 06:52:00,60.8,38.7,29.85,SSW,199,2.3,0.0,44,0.00,OVC,,0.00,WeatherDisplay:10.37,2013-08-26 13:52:00,
2013-08-26 06:57:00,61.1,40.1,29.85,SSW,199,3.5,3.5,46,0.00,OVC,,0.00,WeatherDisplay:10.37,2013-08-26 13:57:00,
2013-08-26 07:02:00,61.2,38.5,29.85,SSW,199,0.0,0.0,43,0.00,OVC,,0.00,WeatherDisplay:10.37,2013-08-26 14:02:00,
2013-08-26 07:07:00,61.3,38.6,29.85,SSW,199,1.0,1.0,43,0.00,OVC,,0.00,WeatherDisplay:10.37,2013-08-26 14:07:00,
2013-08-26 07:12:00,61.5,38.8,29.85,SSW,199,2.3,2.3,43,0.00,OVC,,0.00,WeatherDisplay:10.37,2013-08-26 14:12:00,
2013-08-26 07:17:00,61.8,39.1,29.86,SSW,199,1.1,0.0,43,0.00,OVC,,0.00,WeatherDisplay:10.37,2013-08-26 14:17:00,
2013-08-26 07:22:00,62.5,40.3,29.86,SSW,199,1.1,0.0,44,0.00,OVC,,0.00,WeatherDisplay:10.37,2013-08-26 14:22:00,
2013-08-26 07:27:00,63.9,42.1,29.86,SSW,199,2.3,2.3,45,0.00,OVC,,0.00,WeatherDisplay:10.37,2013-08-26 14:27:00,
2013-08-26 07:32:00,65.0,41.9,29.86,SSW,199,0.0,0.0,43,0.00,OVC,,0.00,WeatherDisplay:10.37,2013-08-26 14:32:00,
2013-08-26 07:37:00,66.0,44.0,29.86,SSW,199,0.0,0.0,45,0.00,OVC,,0.00,WeatherDisplay:10.37,2013-08-26 14:37:00,
2013-08-26 07:42:00,67.1,48.4,29.86,SSW,199,0.0,0.0,51,0.00,OVC,,0.00,WeatherDisplay:10.37,2013-08-26 14:42:00,
2013-08-26 07:47:00,68.1,51.8,29.86,SSW,199,1.1,0.0,56,0.00,OVC,,0.00,WeatherDisplay:10.37,2013-08-26 14:47:00,
2013-08-26 07:52:00,68.9,53.0,29.86,SSW,199,0.0,0.0,57,0.00,OVC,,0.00,WeatherDisplay:10.37,2013-08-26 14:52:00,
2013-08-26 07:57:00,70.5,61.8,29.86,NNW,333,6.9,6.9,74,0.00,OVC,,0.00,WeatherDisplay:10.37,2013-08-26 14:57:00,
2013-08-26 08:02:00,72.3,63.9,29.85,NNW,336,9.2,9.2,75,0.00,OVC,,0.00,WeatherDisplay:10.37,2013-08-26 15:02:00,
2013-08-26 08:07:00,73.2,64.4,29.85,NNE,13,8.1,8.1,74,0.00,OVC,,0.00,WeatherDisplay:10.37,2013-08-26 15:07:00,
2013-08-26 08:12:00,73.9,65.1,29.85,NNE,13,6.0,6.0,74,0.00,OVC,,0.00,WeatherDisplay:10.37,2013-08-26 15:12:00,
2013-08-26 08:17:00,74.3,65.1,29.85,NNE,27,9.2,9.2,73,0.00,OVC,,0.00,WeatherDisplay:10.37,2013-08-26 15:17:00,
2013-08-26 08:22:00,74.6,65.0,29.85,NNW,331,5.8,5.8,72,0.00,OVC,,0.00,WeatherDisplay:10.37,2013-08-26 15:22:00,
2013-08-26 08:27:00,74.6,65.4,29.85,NE,49,6.0,6.0,73,0.00,OVC,,0.00,WeatherDisplay:10.37,2013-08-26 15:27:00,
2013-08-26 08:32:00,75.6,65.5,29.84,NNE,26,8.0,8.0,71,0.00,OVC,,0.00,WeatherDisplay:10.37,2013-08-26 15:32:00,
2013-08-26 08:37:00,76.2,65.7,29.84,North,360,5.8,5.8,70,0.00,OVC,,0.00,WeatherDisplay:10.37,2013-08-26 15:37:00,
2013-08-26 08:42:00,76.7,65.3,29.84,NE,39,5.8,5.8,68,0.00,CLR,,0.00,WeatherDisplay:10.37,2013-08-26 15:42:00,
2013-08-26 08:47:00,77.0,65.2,29.84,NNE,21,6.0,6.6,67,0.00,OVC,,0.00,WeatherDisplay:10.37,2013-08-26 15:47:00,
2013-08-26 08:52:00,77.1,65.3,29.84,NNE,24,4.6,4.6,67,0.00,OVC,,0.00,WeatherDisplay:10.37,2013-08-26 15:52:00,
2013-08-26 08:57:00,77.4,65.1,29.84,NE,52,4.6,4.6,66,0.00,OVC,,0.00,WeatherDisplay:10.37,2013-08-26 15:57:00,
2013-08-26 09:02:00,77.4,65.1,29.84,WNW,296,11.5,11.5,66,0.00,OVC,,0.00,WeatherDisplay:10.37,2013-08-26 16:02:00,
2013-08-26 09:07:00,76.5,64.3,29.84,WNW,283,6.0,6.0,66,0.00,OVC,,0.00,WeatherDisplay:10.37,2013-08-26 16:07:00,
2013-08-26 09:12:00,76.9,64.7,29.84,NNE,22,6.0,6.0,66,0.00,CLR,,0.00,WeatherDisplay:10.37,2013-08-26 16:12:00,
2013-08-26 09:17:00,78.0,64.8,29.83,North,360,3.5,3.5,64,0.00,OVC,,0.00,WeatherDisplay:10.37,2013-08-26 16:17:00,
2013-08-26 09:22:00,78.9,64.8,29.83,NNE,18,3.5,3.5,62,0.00,OVC,,0.00,WeatherDisplay:10.37,2013-08-26 16:22:00,
2013-08-26 09:27:00,79.0,64.9,29.83,North,9,3.5,3.5,62,0.00,OVC,,0.00,WeatherDisplay:10.37,2013-08-26 16:27:00,
2013-08-26 09:32:00,79.2,65.1,29.83,NNE,21,9.2,9.2,62,0.00,OVC,,0.00,WeatherDisplay:10.37,2013-08-26 16:32:00,
2013-08-26 09:37:00,79.5,64.9,29.84,North,5,10.4,10.4,61,0.00,OVC,,0.00,WeatherDisplay:10.37,2013-08-26 16:37:00,
2013-08-26 09:42:00,79.6,65.0,29.83,WNW,298,5.8,5.8,61,0.00,OVC,,0.00,WeatherDisplay:10.37,2013-08-26 16:42:00,
2013-08-26 09:47:00,79.9,65.2,29.83,NE,40,9.2,9.2,61,0.00,OVC,,0.00,WeatherDisplay:10.37,2013-08-26 16:47:00,
2013-08-26 09:52:00,79.7,65.1,29.84,NE,37,5.8,5.8,61,0.00,OVC,,0.00,WeatherDisplay:10.37,2013-08-26 16:52:00,
2013-08-26 09:57:00,79.5,64.9,29.83,NW,310,5.8,5.8,61,0.00,OVC,,0.00,WeatherDisplay:10.37,2013-08-26 16:57:00,
2013-08-26 10:02:00,79.3,65.1,29.83,NE,47,11.0,11.0,62,0.00,OVC,,0.00,WeatherDisplay:10.37,2013-08-26 17:02:00,
2013-08-26 10:07:00,80.2,65.1,29.83,NE,40,3.5,3.8,60,0.00,OVC,,0.00,WeatherDisplay:10.37,2013-08-26 17:07:00,
2013-08-26 10:12:00,80.8,64.6,29.83,NE,43,4.0,4.2,58,0.00,OVC,,0.00,WeatherDisplay:10.37,2013-08-26 17:12:00,
2013-08-26 10:17:00,81.5,64.3,29.83,NE,35,12.7,12.7,56,0.00,OVC,,0.00,WeatherDisplay:10.37,2013-08-26 17:17:00,
2013-08-26 10:22:00,82.0,64.8,29.83,NNW,338,3.5,3.5,56,0.00,OVC,,0.00,WeatherDisplay:10.37,2013-08-26 17:22:00,
2013-08-26 10:27:00,81.2,64.5,29.83,NNE,32,7.0,7.0,57,0.00,OVC,,0.00,WeatherDisplay:10.37,2013-08-26 17:27:00,
2013-08-26 10:32:00,81.4,63.7,29.83,North,360,10.4,10.4,55,0.00,OVC,,0.00,WeatherDisplay:10.37,2013-08-26 17:32:00,
2013-08-26 10:37:00,82.3,64.0,29.83,ENE,60,4.6,4.6,54,0.00,OVC,,0.00,WeatherDisplay:10.37,2013-08-26 17:37:00,
2013-08-26 10:42:00,82.3,64.0,29.82,NNW,332,5.0,5.0,54,0.00,OVC,,0.00,WeatherDisplay:10.37,2013-08-26 17:42:00,
2013-08-26 10:47:00,82.4,63.5,29.82,NE,43,8.1,8.1,53,0.00,OVC,,0.00,WeatherDisplay:10.37,2013-08-26 17:47:00,
2013-08-26 10:52:00,81.8,63.5,29.82,NNW,331,16.1,16.1,54,0.00,CLR,,0.00,WeatherDisplay:10.37,2013-08-26 17:52:00,
2013-08-26 10:57:00,81.5,63.8,29.82,WNW,303,3.5,3.5,55,0.00,OVC,,0.00,WeatherDisplay:10.37,2013-08-26 17:57:00,
2013-08-26 11:02:00,81.8,63.5,29.82,NW,313,10.0,10.0,54,0.00,OVC,,0.00,WeatherDisplay:10.37,2013-08-26 18:02:00,
2013-08-26 11:07:00,82.9,63.5,29.82,NE,36,15.0,15.0,52,0.00,OVC,,0.00,WeatherDisplay:10.37,2013-08-26 18:07:00,
2013-08-26 11:12:00,83.0,63.6,29.81,NE,52,4.6,4.6,52,0.00,OVC,,0.00,WeatherDisplay:10.37,2013-08-26 18:12:00,
2013-08-26 11:17:00,83.7,63.1,29.81,NNW,341,11.0,11.0,50,0.00,OVC,,0.00,WeatherDisplay:10.37,2013-08-26 18:17:00,
2013-08-26 11:22:00,83.8,63.2,29.81,North,5,11.5,11.5,50,0.00,OVC,,0.00,WeatherDisplay:10.37,2013-08-26 18:22:00,
2013-08-26 11:27:00,83.9,63.3,29.81,NNW,343,10.4,10.4,50,0.00,OVC,,0.00,WeatherDisplay:10.37,2013-08-26 18:27:00,
2013-08-26 11:32:00,83.2,63.2,29.81,NNW,344,8.1,8.1,51,0.00,OVC,,0.00,WeatherDisplay:10.37,2013-08-26 18:32:00,
2013-08-26 11:37:00,84.0,63.4,29.80,East,79,3.5,3.5,50,0.00,OVC,,0.00,WeatherDisplay:10.37,2013-08-26 18:37:00,
2013-08-26 11:42:00,83.8,63.2,29.80,ESE,105,3.5,3.5,50,0.00,OVC,,0.00,WeatherDisplay:10.37,2013-08-26 18:42:00,
2013-08-26 11:47:00,84.6,63.3,29.80,NNW,344,6.9,6.9,49,0.00,OVC,,0.00,WeatherDisplay:10.37,2013-08-26 18:47:00,
2013-08-26 11:52:00,86.1,61.6,29.80,NNE,28,12.7,12.7,44,0.00,OVC,,0.00,WeatherDisplay:10.37,2013-08-26 18:52:00,
2013-08-26 11:57:00,86.5,62.0,29.80,NE,56,10.4,10.4,44,0.00,OVC,,0.00,WeatherDisplay:10.37,2013-08-26 18:57:00,
2013-08-26 12:02:00,86.7,62.2,29.80,North,11,6.9,6.9,44,0.00,OVC,,0.00,WeatherDisplay:10.37,2013-08-26 19:02:00,
2013-08-26 12:07:00,87.0,62.5,29.80,NNE,31,11.5,11.5,44,0.00,OVC,,0.00,WeatherDisplay:10.37,2013-08-26 19:07:00,
2013-08-26 12:12:00,87.6,62.3,29.80,ENE,60,7.0,7.0,43,0.00,OVC,,0.00,WeatherDisplay:10.37,2013-08-26 19:12:00,
2013-08-26 12:17:00,87.9,61.9,29.79,ENE,74,12.0,12.0,42,0.00,CLR,,0.00,WeatherDisplay:10.37,2013-08-26 19:17:00,
2013-08-26 12:22:00,86.0,61.5,29.79,ENE,75,5.0,5.0,44,0.00,OVC,,0.00,WeatherDisplay:10.37,2013-08-26 19:22:00,
2013-08-26 12:27:00,86.5,60.7,29.78,ENE,71,14.0,14.0,42,0.00,OVC,,0.00,WeatherDisplay:10.37,2013-08-26 19:27:00,
2013-08-26 12:32:00,85.9,60.8,29.78,NNW,335,4.6,4.6,43,0.00,OVC,,0.00,WeatherDisplay:10.37,2013-08-26 19:32:00,
2013-08-26 12:37:00,86.7,60.2,29.78,ENE,71,12.7,12.7,41,0.00,OVC,,0.00,WeatherDisplay:10.37,2013-08-26 19:37:00,
2013-08-26 12:42:00,86.7,59.5,29.78,ENE,71,11.0,11.0,40,0.00,OVC,,0.00,WeatherDisplay:10.37,2013-08-26 19:42:00,
2013-08-26 12:47:00,86.5,60.7,29.78,NE,53,10.4,10.4,42,0.00,OVC,,0.00,WeatherDisplay:10.37,2013-08-26 19:47:00,
2013-08-26 12:52:00,86.5,60.7,29.77,NE,44,4.0,4.0,42,0.00,OVC,,0.00,WeatherDisplay:10.37,2013-08-26 19:52:00,
2013-08-26 12:57:00,87.6,59.6,29.77,NE,56,6.9,6.9,39,0.00,OVC,,0.00,WeatherDisplay:10.37,2013-08-26 19:57:00,
2013-08-26 13:02:00,87.7,59.7,29.77,NE,52,10.0,10.0,39,0.00,OVC,,0.00,WeatherDisplay:10.37,2013-08-26 20:02:00,
2013-08-26 13:07:00,87.7,58.9,29.77,ENE,67,11.5,11.5,38,0.00,OVC,,0.00,WeatherDisplay:10.37,2013-08-26 20:07:00,
2013-08-26 13:12:00,87.5,59.5,29.77,East,84,4.6,4.6,39,0.00,OVC,,0.00,WeatherDisplay:10.37,2013-08-26 20:12:00,
2013-08-26 13:17:00,86.8,58.1,29.77,NNE,28,5.8,5.8,38,0.00,OVC,,0.00,WeatherDisplay:10.37,2013-08-26 20:17:00,
2013-08-26 13:22:00,88.4,59.6,29.77,NW,306,6.9,6.9,38,0.00,OVC,,0.00,WeatherDisplay:10.37,2013-08-26 20:22:00,
2013-08-26 13:27:00,89.9,59.4,29.77,ENE,64,7.0,7.0,36,0.00,OVC,,0.00,WeatherDisplay:10.37,2013-08-26 20:27:00,
2013-08-26 13:32:00,89.7,59.2,29.77,NE,46,12.7,12.7,36,0.00,CLR,,0.00,WeatherDisplay:10.37,2013-08-26 20:32:00,
2013-08-26 13:37:00,89.1,59.4,29.76,NNE,26,13.8,13.8,37,0.00,OVC,,0.00,WeatherDisplay:10.37,2013-08-26 20:37:00,
2013-08-26 13:42:00,89.0,59.3,29.76,ENE,66,13.8,13.8,37,0.00,OVC,,0.00,WeatherDisplay:10.37,2013-08-26 20:42:00,
2013-08-26 13:47:00,89.0,59.3,29.76,NE,51,6.9,6.9,37,0.00,OVC,,0.00,WeatherDisplay:10.37,2013-08-26 20:47:00,
2013-08-26 13:52:00,89.8,59.3,29.76,ENE,66,9.2,11.1,36,0.00,OVC,,0.00,WeatherDisplay:10.37,2013-08-26 20:52:00,
2013-08-26 13:57:00,90.6,60.0,29.75,North,5,13.0,13.0,36,0.00,OVC,,0.00,WeatherDisplay:10.37,2013-08-26 20:57:00,
2013-08-26 14:02:00,90.2,59.6,29.75,NW,321,8.1,8.1,36,0.00,OVC,,0.00,WeatherDisplay:10.37,2013-08-26 21:02:00,
2013-08-26 14:07:00,90.4,59.8,29.75,NW,323,9.2,9.2,36,0.00,OVC,,0.00,WeatherDisplay:10.37,2013-08-26 21:07:00,
2013-08-26 14:12:00,90.4,59.8,29.75,NE,39,11.5,12.6,36,0.00,CLR,,0.00,WeatherDisplay:10.37,2013-08-26 21:12:00,
2013-08-26 14:17:00,90.2,59.6,29.75,ENE,58,9.2,9.2,36,0.00,OVC,,0.00,WeatherDisplay:10.37,2013-08-26 21:17:00,
2013-08-26 14:22:00,90.3,59.7,29.74,ENE,57,14.0,14.0,36,0.00,OVC,,0.00,WeatherDisplay:10.37,2013-08-26 21:22:00,
2013-08-26 14:27:00,90.1,58.8,29.74,NE,36,13.8,13.8,35,0.00,OVC,,0.00,WeatherDisplay:10.37,2013-08-26 21:27:00,
2013-08-26 14:32:00,89.7,59.2,29.74,NNE,24,13.8,13.8,36,0.00,OVC,,0.00,WeatherDisplay:10.37,2013-08-26 21:32:00,
2013-08-26 14:37:00,90.2,59.6,29.74,NNE,26,13.0,13.0,36,0.00,OVC,,0.00,WeatherDisplay:10.37,2013-08-26 21:37:00,
2013-08-26 14:42:00,91.2,58.9,29.74,NNE,28,11.5,11.5,34,0.00,OVC,,0.00,WeatherDisplay:10.37,2013-08-26 21:42:00,
2013-08-26 14:47:00,91.1,59.6,29.73,NNE,13,11.5,11.5,35,0.00,OVC,,0.00,WeatherDisplay:10.37,2013-08-26 21:47:00,
2013-08-26 14:52:00,91.5,59.2,29.73,NNE,19,13.8,13.8,34,0.00,OVC,,0.00,WeatherDisplay:10.37,2013-08-26 21:52:00,
2013-08-26 14:57:00,90.4,59.0,29.73,NNE,19,6.9,6.9,35,0.00,OVC,,0.00,WeatherDisplay:10.37,2013-08-26 21:57:00,
2013-08-26 15:02:00,91.1,60.4,29.73,NW,324,12.7,12.7,36,0.00,OVC,,0.00,WeatherDisplay:10.37,2013-08-26 22:02:00,
2013-08-26 15:07:00,91.3,59.0,29.72,North,360,14.0,14.0,34,0.00,OVC,,0.00,WeatherDisplay:10.37,2013-08-26 22:07:00,
2013-08-26 15:12:00,89.8,59.3,29.73,NNW,328,13.8,13.8,36,0.00,OVC,,0.00,WeatherDisplay:10.37,2013-08-26 22:12:00,
2013-08-26 15:17:00,88.9,58.5,29.73,NNE,24,11.5,11.5,36,0.00,OVC,,0.00,WeatherDisplay:10.37,2013-08-26 22:17:00,
2013-08-26 15:22:00,89.2,58.8,29.72,ENE,62,6.9,6.9,36,0.00,OVC,,0.00,WeatherDisplay:10.37,2013-08-26 22:22:00,
2013-08-26 15:27:00,89.1,59.4,29.72,ENE,78,7.0,7.0,37,0.00,OVC,,0.00,WeatherDisplay:10.37,2013-08-26 22:27:00,
2013-08-26 15:32:00,89.1,60.2,29.72,ENE,57,12.7,12.7,38,0.00,OVC,,0.00,WeatherDisplay:10.37,2013-08-26 22:32:00,
2013-08-26 15:37:00,89.6,59.9,29.72,NE,40,12.7,12.7,37,0.00,OVC,,0.00,WeatherDisplay:10.37,2013-08-26 22:37:00,
2013-08-26 15:42:00,89.2,59.5,29.72,ENE,64,10.0,10.1,37,0.00,OVC,,0.00,WeatherDisplay:10.37,2013-08-26 22:42:00,
2013-08-26 15:47:00,89.7,59.2,29.71,East,79,15.0,15.0,36,0.00,OVC,,0.00,WeatherDisplay:10.37,2013-08-26 22:47:00,
2013-08-26 15:52:00,89.5,59.0,29.71,NE,53,11.5,11.5,36,0.00,OVC,,0.00,WeatherDisplay:10.37,2013-08-26 22:52:00,
2013-08-26 15:57:00,90.8,59.4,29.71,NNE,32,15.0,15.0,35,0.00,OVC,,0.00,WeatherDisplay:10.37,2013-08-26 22:57:00,
2013-08-26 16:02:00,91.2,58.9,29.71,NNE,32,12.0,12.0,34,0.00,OVC,,0.00,WeatherDisplay:10.37,2013-08-26 23:02:00,
2013-08-26 16:07:00,90.8,58.6,29.71,NNE,28,21.9,21.9,34,0.00,OVC,,0.00,WeatherDisplay:10.37,2013-08-26 23:07:00,
2013-08-26 16:12:00,91.3,59.0,29.71,NE,50,9.0,9.3,34,0.00,OVC,,0.00,WeatherDisplay:10.37,2013-08-26 23:12:00,
2013-08-26 16:17:00,90.1,58.8,29.70,NE,53,17.0,17.0,35,0.00,OVC,,0.00,WeatherDisplay:10.37,2013-08-26 23:17:00,
2013-08-26 16:22:00,90.2,58.8,29.70,East,80,10.4,10.4,35,0.00,OVC,,0.00,WeatherDisplay:10.37,2013-08-26 23:22:00,
2013-08-26 16:27:00,89.9,59.4,29.71,NNE,32,16.1,16.1,36,0.00,OVC,,0.00,WeatherDisplay:10.37,2013-08-26 23:27:00,
2013-08-26 16:32:00,90.5,59.1,29.70,NE,36,14.0,14.0,35,0.00,OVC,,0.00,WeatherDisplay:10.37,2013-08-26 23:32:00,
2013-08-26 16:37:00,90.0,59.5,29.70,NE,52,13.8,13.8,36,0.00,OVC,,0.00,WeatherDisplay:10.37,2013-08-26 23:37:00,
2013-08-26 16:42:00,89.7,60.0,29.70,NNE,19,17.3,17.3,37,0.00,OVC,,0.00,WeatherDisplay:10.37,2013-08-26 23:42:00,
2013-08-26 16:47:00,89.6,59.9,29.70,NNE,14,16.0,16.0,37,0.00,OVC,,0.00,WeatherDisplay:10.37,2013-08-26 23:47:00,
2013-08-26 16:52:00,89.5,59.8,29.70,NNE,19,11.5,11.5,37,0.00,OVC,,0.00,WeatherDisplay:10.37,2013-08-26 23:52:00,
2013-08-26 16:57:00,89.9,60.1,29.70,NE,51,10.4,10.4,37,0.00,OVC,,0.00,WeatherDisplay:10.37,2013-08-26 23:57:00,
2013-08-26 17:02:00,89.2,59.5,29.70,North,360,18.4,18.4,37,0.00,OVC,,0.00,WeatherDisplay:10.37,2013-08-27 00:02:00,
2013-08-26 17:07:00,88.5,59.7,29.70,East,82,17.3,17.3,38,0.00,OVC,,0.00,WeatherDisplay:10.37,2013-08-27 00:07:00,
2013-08-26 17:12:00,88.1,59.3,29.70,NE,35,12.0,12.0,38,0.00,OVC,,0.00,WeatherDisplay:10.37,2013-08-27 00:12:00,
2013-08-26 17:17:00,88.0,59.9,29.70,NNE,25,16.1,16.1,39,0.00,OVC,,0.00,WeatherDisplay:10.37,2013-08-27 00:17:00,
2013-08-26 17:22:00,88.0,59.2,29.70,NNE,19,16.1,16.1,38,0.00,OVC,,0.00,WeatherDisplay:10.37,2013-08-27 00:22:00,
2013-08-26 17:27:00,88.6,59.7,29.70,NE,46,13.8,13.8,38,0.00,OVC,,0.00,WeatherDisplay:10.37,2013-08-27 00:27:00,
2013-08-26 17:32:00,88.0,59.2,29.70,NE,44,17.3,17.3,38,0.00,OVC,,0.00,WeatherDisplay:10.37,2013-08-27 00:32:00,
2013-08-26 17:37:00,87.8,59.8,29.70,NE,47,13.8,13.8,39,0.00,OVC,,0.00,WeatherDisplay:10.37,2013-08-27 00:37:00,
2013-08-26 17:42:00,88.2,60.1,29.70,NE,54,15.0,15.0,39,0.00,OVC,,0.00,WeatherDisplay:10.37,2013-08-27 00:42:00,
2013-08-26 17:47:00,88.5,59.7,29.70,NE,46,11.5,11.5,38,0.00,OVC,,0.00,WeatherDisplay:10.37,2013-08-27 00:47:00,
2013-08-26 17:52:00,88.3,59.5,29.71,NE,49,15.0,15.0,38,0.00,OVC,,0.00,WeatherDisplay:10.37,2013-08-27 00:52:00,
2013-08-26 17:57:00,87.5,60.2,29.71,NE,55,9.2,9.2,40,0.00,OVC,,0.00,WeatherDisplay:10.37,2013-08-27 00:57:00,
2013-08-26 18:02:00,87.1,60.5,29.71,ENE,71,12.7,12.7,41,0.00,OVC,,0.00,WeatherDisplay:10.37,2013-08-27 01:02:00,
2013-08-26 18:07:00,86.9,61.0,29.72,NNE,30,16.1,16.1,42,0.00,OVC,,0.00,WeatherDisplay:10.37,2013-08-27 01:07:00,
2013-08-26 18:12:00,85.9,62.1,29.71,East,98,26.0,26.0,45,0.00,OVC,,0.00,WeatherDisplay:10.37,2013-08-27 01:12:00,
2013-08-26 18:17:00,84.5,62.1,29.72,SSE,165,11.5,11.5,47,0.00,OVC,,0.00,WeatherDisplay:10.37,2013-08-27 01:17:00,
2013-08-26 18:23:00,81.6,61.7,29.71,SSE,152,11.5,11.5,51,0.00,OVC,,0.00,WeatherDisplay:10.37,2013-08-27 01:23:00,
2013-08-26 18:28:00,81.4,62.1,29.71,SSE,154,19.6,19.6,52,0.00,OVC,,0.00,WeatherDisplay:10.37,2013-08-27 01:28:00,
2013-08-26 18:33:00,81.8,61.9,29.71,SE,142,18.4,18.4,51,0.00,OVC,,0.00,WeatherDisplay:10.37,2013-08-27 01:33:00,
2013-08-26 18:38:00,82.1,62.2,29.71,SSE,153,13.8,13.8,51,0.00,OVC,,0.00,WeatherDisplay:10.37,2013-08-27 01:38:00,
2013-08-26 18:43:00,82.5,62.0,29.71,SSE,153,11.5,11.6,50,0.00,OVC,,0.00,WeatherDisplay:10.37,2013-08-27 01:43:00,
2013-08-26 18:48:00,82.7,62.2,29.71,SSE,163,12.7,12.7,50,0.00,OVC,,0.00,WeatherDisplay:10.37,2013-08-27 01:48:00,
2013-08-26 18:53:00,82.6,61.5,29.71,SE,146,11.5,11.5,49,0.00,OVC,,0.00,WeatherDisplay:10.37,2013-08-27 01:53:00,
2013-08-26 18:58:00,82.9,61.2,29.71,SE,142,11.5,11.5,48,0.00,OVC,,0.00,WeatherDisplay:10.37,2013-08-27 01:58:00,
2013-08-26 19:03:00,82.8,61.1,29.71,SSE,148,8.1,8.1,48,0.00,OVC,,0.00,WeatherDisplay:10.37,2013-08-27 02:03:00,
2013-08-26 19:08:00,82.8,61.1,29.71,SSE,152,5.8,5.8,48,0.00,OVC,,0.00,WeatherDisplay:10.37,2013-08-27 02:08:00,
2013-08-26 19:13:00,82.7,61.0,29.71,SSE,161,5.0,5.0,48,0.00,OVC,,0.00,WeatherDisplay:10.37,2013-08-27 02:13:00,
2013-08-26 19:18:00,82.5,60.8,29.71,South,173,5.8,5.8,48,0.00,OVC,,0.00,WeatherDisplay:10.37,2013-08-27 02:18:00,
2013-08-26 19:23:00,82.4,60.7,29.71,SSE,165,4.6,4.6,48,0.00,OVC,,0.00,WeatherDisplay:10.37,2013-08-27 02:23:00,
2013-08-26 19:28:00,82.1,61.0,29.72,SSE,166,3.5,3.5,49,0.00,OVC,,0.00,WeatherDisplay:10.37,2013-08-27 02:28:00,
2013-08-26 19:33:00,81.8,60.8,29.72,SSE,166,2.3,2.3,49,0.00,OVC,,0.00,WeatherDisplay:10.37,2013-08-27 02:33:00,
2013-08-26 19:38:00,81.5,61.1,29.72,SSE,166,2.3,2.3,50,0.00,OVC,,0.00,WeatherDisplay:10.37,2013-08-27 02:38:00,
2013-08-26 19:43:00,81.5,61.1,29.72,SSE,166,0.0,0.0,50,0.00,OVC,,0.00,WeatherDisplay:10.37,2013-08-27 02:43:00,
2013-08-26 19:48:00,81.4,60.4,29.72,SSW,203,3.5,3.5,49,0.00,OVC,,0.00,WeatherDisplay:10.37,2013-08-27 02:48:00,
2013-08-26 19:53:00,81.9,60.3,29.72,South,179,3.5,3.5,48,0.00,OVC,,0.00,WeatherDisplay:10.37,2013-08-27 02:53:00,
2013-08-26 19:58:00,82.0,59.8,29.73,South,175,4.6,4.6,47,0.00,OVC,,0.00,WeatherDisplay:10.37,2013-08-27 02:58:00,
2013-08-26 20:03:00,82.7,59.8,29.73,South,178,8.1,8.1,46,0.00,OVC,,0.00,WeatherDisplay:10.37,2013-08-27 03:03:00,
2013-08-26 20:08:00,82.6,59.7,29.73,SSE,155,4.6,4.6,46,0.00,OVC,,0.00,WeatherDisplay:10.37,2013-08-27 03:08:00,
2013-08-26 20:13:00,82.9,59.4,29.73,SSE,159,5.8,5.8,45,0.00,OVC,,0.00,WeatherDisplay:10.37,2013-08-27 03:13:00,
2013-08-26 20:18:00,81.8,58.4,29.73,SSW,193,5.8,5.8,45,0.00,OVC,,0.00,WeatherDisplay:10.37,2013-08-27 03:18:00,
2013-08-26 20:23:00,81.0,58.3,29.74,SSW,194,4.6,4.8,46,0.00,OVC,,0.00,WeatherDisplay:10.37,2013-08-27 03:23:00,
2013-08-26 20:28:00,80.8,58.1,29.74,SSW,193,4.6,4.6,46,0.00,OVC,,0.00,WeatherDisplay:10.37,2013-08-27 03:28:00,
2013-08-26 20:33:00,80.6,58.5,29.74,SW,214,5.8,5.8,47,0.00,OVC,,0.00,WeatherDisplay:10.37,2013-08-27 03:33:00,
2013-08-26 20:38:00,80.1,57.5,29.74,SW,221,9.0,9.0,46,0.00,OVC,,0.00,WeatherDisplay:10.37,2013-08-27 03:38:00,
2013-08-26 20:43:00,80.1,58.0,29.74,SSW,194,8.1,8.1,47,0.00,OVC,,0.00,WeatherDisplay:10.37,2013-08-27 03:43:00,
2013-08-26 20:48:00,80.2,58.1,29.74,South,173,6.9,6.9,47,0.00,OVC,,0.00,WeatherDisplay:10.37,2013-08-27 03:48:00,
2013-08-26 20:53:00,80.0,58.0,29.74,SSE,161,4.0,4.0,47,0.00,OVC,,0.00,WeatherDisplay:10.37,2013-08-27 03:53:00,
2013-08-26 20:58:00,79.7,57.7,29.75,SSE,150,6.0,6.0,47,0.00,OVC,,0.00,WeatherDisplay:10.37,2013-08-27 03:58:00,
2013-08-26 21:01:00,79.7,58.3,29.75,SE,132,5.8,5.8,48,0.00,OVC,,0.00,WeatherDisplay:10.37,2013-08-27 04:01:00,
2013-08-26 21:06:00,79.3,57.9,29.75,SE,129,4.6,4.9,48,0.00,OVC,,0.00,WeatherDisplay:10.37,2013-08-27 04:06:00,
2013-08-26 21:12:00,79.1,58.3,29.75,SE,129,5.8,5.8,49,0.00,OVC,,0.00,WeatherDisplay:10.37,2013-08-27 04:12:00,
2013-08-26 21:17:00,78.8,58.0,29.75,ESE,119,6.9,6.9,49,0.00,OVC,,0.00,WeatherDisplay:10.37,2013-08-27 04:17:00,
2013-08-26 21:22:00,78.5,58.3,29.76,ESE,115,3.5,3.5,50,0.00,OVC,,0.00,WeatherDisplay:10.37,2013-08-27 04:22:00,
2013-08-26 21:27:00,78.4,58.2,29.76,ENE,76,4.6,4.6,50,0.00,OVC,,0.00,WeatherDisplay:10.37,2013-08-27 04:27:00,
2013-08-26 21:32:00,78.4,57.7,29.76,NE,54,3.5,3.5,49,0.00,OVC,,0.00,WeatherDisplay:10.37,2013-08-27 04:32:00,
2013-08-26 21:37:00,77.7,57.0,29.76,ENE,60,6.9,6.9,49,0.00,OVC,,0.00,WeatherDisplay:10.37,2013-08-27 04:37:00,
2013-08-26 21:42:00,77.1,57.0,29.76,ENE,59,4.6,4.6,50,0.00,OVC,,0.00,WeatherDisplay:10.37,2013-08-27 04:42:00,
2013-08-26 21:47:00,76.9,57.4,29.76,ENE,60,7.0,7.0,51,0.00,OVC,,0.00,WeatherDisplay:10.37,2013-08-27 04:47:00,
2013-08-26 21:52:00,76.9,56.8,29.76,ENE,61,4.0,4.0,50,0.00,OVC,,0.00,WeatherDisplay:10.37,2013-08-27 04:52:00,
2013-08-26 21:57:00,76.8,57.3,29.76,ENE,71,6.9,6.9,51,0.00,OVC,,0.00,WeatherDisplay:10.37,2013-08-27 04:57:00,
2013-08-26 22:02:00,78.0,57.9,29.76,ENE,72,4.6,4.6,50,0.00,OVC,,0.00,WeatherDisplay:10.37,2013-08-27 05:02:00,
2013-08-26 22:07:00,78.7,57.9,29.76,ENE,72,4.6,4.6,49,0.00,CLR,,0.00,WeatherDisplay:10.37,2013-08-27 05:07:00,
2013-08-26 22:12:00,78.2,56.9,29.76,ENE,59,4.6,4.6,48,0.00,CLR,,0.00,WeatherDisplay:10.37,2013-08-27 05:12:00,
2013-08-26 22:17:00,77.1,56.5,29.76,NE,48,5.8,5.8,49,0.00,CLR,,0.00,WeatherDisplay:10.37,2013-08-27 05:17:00,
2013-08-26 22:22:00,76.5,56.5,29.76,NE,49,4.6,4.8,50,0.00,CLR,,0.00,WeatherDisplay:10.37,2013-08-27 05:22:00,
2013-08-26 22:27:00,76.3,56.3,29.76,NE,46,4.6,4.6,50,0.00,CLR,,0.00,WeatherDisplay:10.37,2013-08-27 05:27:00,
2013-08-26 22:32:00,75.9,56.5,29.76,NE,53,4.6,4.6,51,0.00,CLR,,0.00,WeatherDisplay:10.37,2013-08-27 05:32:00,
2013-08-26 22:37:00,75.8,56.4,29.76,NE,46,3.5,3.5,51,0.00,CLR,,0.00,WeatherDisplay:10.37,2013-08-27 05:37:00,
2013-08-26 22:42:00,75.3,55.9,29.76,North,360,3.5,3.5,51,0.00,CLR,,0.00,WeatherDisplay:10.37,2013-08-27 05:42:00,
2013-08-26 22:47:00,75.1,56.3,29.76,North,351,3.5,3.5,52,0.00,CLR,,0.00,WeatherDisplay:10.37,2013-08-27 05:47:00,
2013-08-26 22:52:00,75.4,56.5,29.76,NNW,340,3.5,3.5,52,0.00,CLR,,0.00,WeatherDisplay:10.37,2013-08-27 05:52:00,
2013-08-26 22:57:00,75.4,56.5,29.76,North,355,3.5,3.8,52,0.00,CLR,,0.00,WeatherDisplay:10.37,2013-08-27 05:57:00,
2013-08-26 23:02:00,75.6,56.7,29.76,NNW,342,3.5,3.5,52,0.00,OVC,,0.00,WeatherDisplay:10.37,2013-08-27 06:02:00,
2013-08-26 23:07:00,75.5,56.6,29.76,NNW,338,5.0,5.0,52,0.00,OVC,,0.00,WeatherDisplay:10.37,2013-08-27 06:07:00,
2013-08-26 23:13:00,75.3,56.5,29.76,NW,325,6.0,6.0,52,0.00,OVC,,0.00,WeatherDisplay:10.37,2013-08-27 06:13:00,
2013-08-26 23:18:00,75.4,57.1,29.76,NW,323,7.0,7.0,53,0.00,OVC,,0.00,WeatherDisplay:10.37,2013-08-27 06:18:00,
2013-08-26 23:23:00,75.6,57.3,29.76,NNW,343,5.8,5.8,53,0.00,OVC,,0.00,WeatherDisplay:10.37,2013-08-27 06:23:00,
2013-08-26 23:28:00,75.5,57.2,29.76,NNW,332,5.8,5.8,53,0.00,OVC,,0.00,WeatherDisplay:10.37,2013-08-27 06:28:00,
2013-08-26 23:33:00,75.2,56.9,29.76,NNW,342,5.0,5.0,53,0.00,OVC,,0.00,WeatherDisplay:10.37,2013-08-27 06:33:00,
2013-08-26 23:38:00,74.9,57.1,29.76,NW,325,5.8,5.8,54,0.00,OVC,,0.00,WeatherDisplay:10.37,2013-08-27 06:38:00,
2013-08-26 23:43:00,74.7,58.0,29.76,WNW,301,5.8,5.8,56,0.00,CLR,,0.00,WeatherDisplay:10.37,2013-08-27 06:43:00,
2013-08-26 23:48:00,75.0,57.2,29.76,WNW,298,3.0,3.0,54,0.00,OVC,,0.00,WeatherDisplay:10.37,2013-08-27 06:48:00,
2013-08-26 23:53:00,74.4,56.7,29.76,WNW,288,3.5,3.5,54,0.00,OVC,,0.00,WeatherDisplay:10.37,2013-08-27 06:53:00,
2013-08-26 23:58:00,74.3,57.1,29.76,West,271,2.3,2.3,55,0.00,OVC,,0.00,WeatherDisplay:10.37,2013-08-27 06:58:00,